User: anonymous   Login
Location: ActonStarParty
(42.4766°N, 71.4538°W)
Time: 20:37:32
(UTC-05:00)
Language:

ITAMSAT 1 - Orbit

View from above orbital plane
View from above orbital plane
View from above satellite
View from above satellite

Ground track
Ground track

The orbit data is extracted from the following two-line orbital elements,

1 22826U 93061D   14352.39816446  .00000298  00000-0  13240-3 0  6028
2 22826 098.6810 297.8913 0010098 109.3561 250.8713 14.30112491107242
Epoch (UTC): 18 December 2014 09:33:21
Eccentricity: 0.0010098
inclination: 98.6810°
perigee height: 784 km
apogee height: 798 km
right ascension of ascending node: 297.8913°
argument of perigee: 109.3561°
revolutions per day: 14.30112491
mean anomaly at epoch: 250.8713°
orbit number at epoch: 10724

The dashed part of the orbit path shows where the satellite is in the earth's shadow,  

DLR